Бишкек

Киргизия     42°52′47″N   74°36′51″E
темп.,
°C
ветер,
м/с
пор.,
м/с
влажн.,
%
обл.,
%
осадки,
мм/ч
давл.,
гПа
погр.,
м
18 мая, вт
вт1800:00+13вюв33520 0.0 101530
03:00+12вюв34510 0.0 101442
06:00+12вюв33490 0.0 101441
09:00+19в34380 0.0 1013265
12:00+25ссв22280 0.0 1011859
15:00+27сз22240 0.0 10101600
18:00+26з453683 0.0 1010401
21:00+18сз114991 0.0 101012
19 мая, ср
ср1900:00+15юв33565 0.0 101019
03:00+14вюв334799 0.0 100925
06:00+14вюв334477 0.0 100922
09:00+22вюв44390 0.0 1008279
12:00+27в11250 0.0 10061009
15:00+29ссз332026 0.0 10053053
18:00+23ююз4846100 0.0 1006257
21:00+16ю5873100 1.1 1011121
20 мая, чт
чт2000:00+17вюв61260100 1.1 1008236
03:00+16вюв4649100 0.0 100882
06:00+15вюв45492 0.0 100868
09:00+23ююв23384 0.0 1008280
12:00+27сз453099 0.0 10091193
15:00+28зсз57275 0.0 10082738
18:00+17в1571100 2.0 101180
21:00+14в61187100 2.4 1015237
21 мая, пт
пт2100:00+13в2283100 2.9 101528
03:00+12в2286100 0.0 101515
06:00+10в22846 0.0 101625
09:00+16ссв11610 0.0 1016326
12:00+22ссз22440 0.0 10151057
15:00+25ссз43320 0.0 10131582
18:00+24ссв443732 0.0 1013843
21:00+15св2349100 0.0 101635
22 мая, сб
сб2200:00+13в125898 0.0 101613
03:00+12в22596 0.0 101515
06:00+11в11635 0.0 101611
09:00+18всв334518 0.0 1015414
12:00+23ссз223124 0.0 10141131
15:00+25сз2227100 0.0 10131781
18:00+23юз3448100 0.0 1013175
21:00+17юз226073 0.0 101424